Flag for India Weather past 2 weeks in Firozpur, Punjab, India

Now
81 °F

Clear.


Feels Like: 85 °F
Forecast: 76 / 101 °F
Wind: No wind

Location: Lahore Airport

Current Time: Sep 4, 2015 at 5:21:47 AM

Latest Report: Sep 4, 2015 at 4:55 AM


Visibility: 2 mi

Pressure: 29.77 "Hg

Humidity: 79%

Dew point: 73 °F

Location of FirozpurLocation

Historic Weather in Firozpur — Graph

°F

Firozpur temperature yesterday

Maximum temperature yesterday: 99 °F (at 3:25 PM)
Minimum temperature yesterday: 81 °F (at 5:25 AM)
Average temperature yesterday: 89 °F

Past Weeks' High & Low Weather Summary

 TemperatureHumidityPressure
High102 °F (Sep 1, 2:30 PM)100% (Aug 21, 2:55 PM)29.77 "Hg (Aug 21, 2:55 PM)
Low73 °F (Aug 22, 12:25 AM)35% (Aug 31, 3:25 PM)29.50 "Hg (Aug 20, 5:55 PM)
Average89 °F66%29.61 "Hg
* Reported Aug 20 3:55 AM — Sep 4 4:25 AM, Firozpur, Weather by CustomWeather, © 2015

Note: Actual official high and low records may vary slightly from our data, if they occured in-between our weather recording intervals... More about our weather records

Advertising

Firozpur weather history for previous 24 hours

 ConditionsComfort  
Time TempWeatherWind HumidityBarometerVisibility
4:25 AM
Fri, Sep 4
81 °FClear.No wind79%29.77 "Hg2 mi
3:55 AM82 °FClear.No wind74%29.77 "Hg2 mi
2:55 AM82 °FClear.3 mph74%29.77 "Hg3 mi
1:55 AM84 °FClear.No wind70%29.77 "Hg3 mi
1:25 AM84 °FClear.3 mph70%29.77 "Hg3 mi
12:55 AM84 °FClear.3 mph70%29.77 "Hg3 mi
11:55 PM
Thu, Sep 3
86 °FClear.3 mph66%29.77 "Hg3 mi
11:25 PM86 °FClear.No wind66%29.77 "Hg3 mi
10:55 PM86 °FClear.3 mph66%29.77 "Hg3 mi
10:25 PM86 °FClear.5 mph66%29.74 "Hg3 mi
9:55 PM88 °FClear.5 mph59%29.74 "Hg3 mi
9:25 PM88 °FClear.No wind59%29.74 "Hg3 mi
8:55 PM90 °FClear.No wind55%29.74 "Hg4 mi
8:25 PM91 °FClear.No wind52%29.71 "Hg4 mi
7:55 PM91 °FClear.No wind52%29.71 "Hg4 mi
7:25 PM93 °FClear.3 mph49%29.71 "Hg4 mi
6:55 PM93 °FPassing clouds.5 mph49%29.68 "Hg4 mi
6:25 PM95 °FPassing clouds.6 mph47%29.71 "Hg4 mi
5:55 PM97 °FPassing clouds.9 mph44%29.68 "Hg4 mi
5:25 PM97 °FPassing clouds.9 mph44%29.68 "Hg4 mi
4:55 PM97 °FPassing clouds.8 mph44%29.68 "Hg4 mi
4:25 PM86 °FPassing clouds.9 mph62%29.68 "Hg4 mi
3:57 PM99 °FPassing clouds.9 mph42%29.68 "Hg4 mi
3:25 PM99 °FPassing clouds.7 mph42%29.68 "Hg4 mi
2:55 PM97 °FPassing clouds.7 mph44%29.71 "Hg4 mi
2:25 PM97 °FPassing clouds.7 mph44%29.71 "Hg4 mi
1:55 PM95 °FPassing clouds.8 mph50%29.71 "Hg4 mi
1:25 PM95 °FPassing clouds.6 mph50%29.71 "Hg4 mi
12:55 PM93 °FPassing clouds.6 mph53%29.71 "Hg4 mi
12:25 PM93 °FPassing clouds.3 mph53%29.74 "Hg3 mi
11:55 AM91 °FPassing clouds.3 mph59%29.74 "Hg2 mi
11:25 AM91 °FPassing clouds.3 mph59%29.74 "Hg2 mi
10:55 AM90 °FScattered clouds.8 mph59%29.74 "Hg2 mi
10:25 AM90 °FPassing clouds.8 mph59%29.74 "Hg2 mi
9:55 AM90 °FScattered clouds.5 mph59%29.74 "Hg2 mi
9:25 AM88 °FClear.No wind62%29.74 "Hg3 mi
8:55 AM86 °FClear.3 mph70%29.74 "Hg3 mi
8:25 AM84 °FClear.No wind74%29.74 "Hg3 mi
7:55 AM82 °FClear.6 mph79%29.71 "Hg3 mi
7:25 AM81 °FClear.5 mph84%29.68 "Hg3 mi
6:55 AM81 °FClear.3 mph84%29.68 "Hg2 mi
6:25 AM81 °FClear.5 mph84%29.68 "Hg2 mi
5:55 AM81 °FClear.3 mph84%29.65 "Hg2 mi
5:25 AM81 °FClear.5 mph84%29.65 "Hg2 mi
5:00 AM82 °FClear.5 mph79%29.65 "Hg2 mi
Weather by CustomWeather, © 2015

See weather overviewHow to use our weather pages